Marrakech, Morocco

2:13 PM WET on December 05, 2016 (GMT +0000)
Marrakech

Weather History for 60230 - October, 2011

Change the Weather History Date:

Wednesday, October 26, 2011

  Actual Average Record
Temperature  
Mean Temperature 66 °F -  
Max Temperature 78 °F - - ()
Min Temperature 55 °F - - ()
Cooling Degree Days 2    
Growing Degree Days 16 (Base 50)    
Moisture  
Dew Point 56 °F    
Average Humidity 72    
Maximum Humidity 100    
Minimum Humidity 36    
Precipitation  
Precipitation 0.00 in - - ()
Sea Level Pressure  
Sea Level Pressure 29.98 in    
Wind  
Wind Speed 5 mph ()    
Max Wind Speed 8 mph    
Max Gust Speed -    
Visibility 5.3 miles    
Events      
T = Trace of Precipitation, MM = Missing Value Source: Averaged Metar Reports

Daily Weather History Graph

Daily Weather History Graph

Search for Another Location

Airport or City:

Trip Planner

Search our weather history database for the weather conditions in past years. The results will help you decide how hot, cold, wet, or windy it might be!

Date:

Astronomy

Oct. 26, 2011 Rise Set
Actual Time 6:43 AM WET 5:48 PM WET
Civil Twilight 6:18 AM WET 6:13 PM WET
Nautical Twilight 5:49 AM WET 6:42 PM WET
Astronomical Twilight 5:21 AM WET 7:10 PM WET
Moon 6:11 AM WET (10/26) 5:25 PM WET (10/26)
Length of Visible Light 11h 55m
Length of Day
11h 05m
Waning Crescent, 0% of the Moon is Illuminated
Oct 26
Waning Crescent
Oct 26
New
Nov 2
First Quarter
Nov 10
Full
Nov 18
Last Quarter

Hourly Weather History & Observations

Time (WET) Temp. Dew Point Humidity Pressure Visibility Wind Dir Wind Speed Gust Speed Precip Events Conditions
12:00 AM 61 °F 57 °F 84% 29.93 in 6 mi East 6.9 mph - -   Clear
12:00 AM 60.8 °F 57.2 °F 88% 29.95 in 5.6 mi East 6.9 mph - N/A   Unknown
12:30 AM 60.8 °F 57.2 °F 88% 29.95 in - East 6.9 mph - N/A   Clear
1:00 AM 59.0 °F 57.2 °F 94% 29.92 in 5.6 mi East 5.8 mph - N/A   Unknown
1:30 AM 59.0 °F 57.2 °F 94% 29.95 in 5.0 mi East 4.6 mph - N/A   Unknown
2:00 AM 59.0 °F 57.2 °F 94% 29.95 in 5.0 mi ENE 2.3 mph - N/A   Unknown
2:30 AM 59.0 °F 57.2 °F 94% 29.95 in 5.0 mi Calm Calm - N/A   Unknown
3:00 AM 57.2 °F 55.4 °F 94% 29.95 in 3.7 mi WSW 4.6 mph - N/A   Unknown
3:30 AM 57.2 °F 55.4 °F 94% 29.95 in 4.3 mi SW 3.5 mph - N/A   Unknown
4:00 AM 57.2 °F 55.4 °F 94% 29.95 in 4.3 mi SSW 3.5 mph - N/A   Unknown
4:30 AM 57.2 °F 55.4 °F 94% 29.95 in 5.0 mi SW 4.6 mph - N/A   Unknown
5:00 AM 55.4 °F 55.4 °F 100% 29.95 in 4.3 mi Variable 2.3 mph - N/A   Unknown
5:30 AM 55.4 °F 55.4 °F 100% 29.95 in 4.3 mi SSW 2.3 mph - N/A   Unknown
6:00 AM 55.4 °F 55.4 °F 100% 29.95 in 4.3 mi Calm Calm - N/A   Unknown
6:30 AM 55.4 °F 55.4 °F 100% 29.95 in 4.3 mi Variable 2.3 mph - N/A   Unknown
7:00 AM 57.2 °F 55.4 °F 94% 29.98 in 3.7 mi Calm Calm - N/A   Unknown
7:30 AM 59.0 °F 57.2 °F 94% 29.98 in - WSW 2.3 mph - N/A   Unknown
8:00 AM 62.6 °F 57.2 °F 82% 30.01 in 4.3 mi WSW 3.5 mph - N/A   Unknown
8:30 AM 64.4 °F 57.2 °F 77% 30.01 in 5.0 mi West 3.5 mph - N/A   Unknown
9:00 AM 66 °F 59 °F 73% 29.98 in 5 mi West 4.6 mph - -   Clear
9:00 AM 66.2 °F 59.0 °F 78% 30.01 in 5.0 mi WSW 4.6 mph - N/A   Unknown
9:30 AM 68.0 °F 59.0 °F 73% 30.04 in 5.0 mi West 5.8 mph - N/A   Unknown
10:00 AM 69.8 °F 60.8 °F 73% 30.04 in 5.0 mi WSW 5.8 mph - N/A   Unknown
10:30 AM 71.6 °F 59.0 °F 64% 30.04 in - West 8.1 mph - N/A   Clear
11:00 AM 73.4 °F 60.8 °F 65% 30.01 in - West 6.9 mph - N/A   Clear
11:30 AM 73.4 °F 59.0 °F 61% 30.01 in - West 6.9 mph - N/A   Clear
12:00 PM 75.2 °F 59.0 °F 57% 30.01 in - West 6.9 mph - N/A   Clear
12:30 PM 75.2 °F 55.4 °F 50% 29.98 in - Variable 4.6 mph - N/A   Clear
1:00 PM 77.0 °F 55.4 °F 47% 29.98 in - Variable 4.6 mph - N/A   Clear
1:30 PM 78.8 °F 55.4 °F 44% 29.95 in - Variable 4.6 mph - N/A   Clear
2:00 PM 77.0 °F 55.4 °F 47% 29.95 in 6.2 mi Variable 4.6 mph - N/A   Scattered Clouds
2:30 PM 77.0 °F 55.4 °F 47% 29.95 in 6.2 mi WNW 8.1 mph - N/A   Scattered Clouds
3:00 PM 77 °F 55 °F 36% 29.88 in 6 mi NW 6.9 mph - -   Scattered Clouds
3:00 PM 77.0 °F 55.4 °F 47% 29.95 in 6.2 mi WNW 6.9 mph - N/A   Scattered Clouds
3:30 PM 77.0 °F 53.6 °F 44% 29.95 in 6.2 mi WNW 6.9 mph - N/A   Scattered Clouds
4:00 PM 77.0 °F 53.6 °F 44% 29.95 in 6.2 mi WSW 4.6 mph - N/A   Mostly Cloudy
4:30 PM 75.2 °F 55.4 °F 50% 29.95 in 6.2 mi West 5.8 mph - N/A   Mostly Cloudy
5:00 PM 75.2 °F 53.6 °F 47% 29.95 in 6.2 mi West 4.6 mph - N/A   Mostly Cloudy
5:30 PM 73.4 °F 55.4 °F 53% 29.95 in 6.2 mi West 5.8 mph - N/A   Mostly Cloudy
6:00 PM 69.8 °F 55.4 °F 60% 29.98 in 6.2 mi West 5.8 mph - N/A   Mostly Cloudy
6:30 PM 69.8 °F 55.4 °F 60% 29.98 in 4.3 mi WNW 5.8 mph - N/A   Mostly Cloudy
7:00 PM 68.0 °F 57.2 °F 68% 29.98 in 4.3 mi WNW 4.6 mph - N/A   Mostly Cloudy
7:30 PM 66.2 °F 57.2 °F 73% 30.01 in - WNW 4.6 mph - N/A   Mostly Cloudy
8:00 PM 68.0 °F 59.0 °F 73% 30.01 in 3.7 mi West 3.5 mph - N/A   Scattered Clouds
8:30 PM 68.0 °F 55.4 °F 64% 30.01 in 6.2 mi West 8.1 mph - N/A   Scattered Clouds
9:00 PM 67 °F 54 °F 54% 29.99 in 6 mi West 8.1 mph - -   Partly Cloudy
9:00 PM 68.0 °F 55.4 °F 64% 30.04 in 6.2 mi West 8.1 mph - N/A   Scattered Clouds
9:30 PM 64.4 °F 53.6 °F 68% 30.04 in 6.2 mi WSW 8.1 mph - N/A   Scattered Clouds
10:00 PM 62.6 °F 53.6 °F 72% 30.01 in 6.2 mi WSW 5.8 mph - N/A   Scattered Clouds
10:30 PM 62.6 °F 53.6 °F 72% 30.01 in 6.2 mi SW 3.5 mph - N/A   Scattered Clouds
11:00 PM 60.8 °F 53.6 °F 77% 30.04 in 6.2 mi West 3.5 mph - N/A   Scattered Clouds
11:30 PM 60.8 °F 53.6 °F 77% 30.01 in 6.2 mi West 4.6 mph - N/A   Partly Cloudy